CAPE
1352 1846 1696 1810 1753 1750 1747 1760 2120 2204 2101 2079 2165 2244 2262 2255 2147 2160 2354 2377 2480 2921 2814 2146 2139 2052 2005 2183 2293 2052 1721 1842 2310 2417 2376 2106 1963 1809 1768 2073 1802 1126 1417
1830 2127 1671 1761 1790 1881 1912 1898 2179 2438 2431 2294 2242 2293 2350 2326 2183 2230 2491 2464 2541 2944 2778 2108 2088 2012 1859 1935 1874 1644 1481 1550 2061 2202 2356 2271 2044 1856 1781 1973 1880 1306 1731
1998 2200 2214 1762 1814 1935 2025 2099 2376 2753 2780 2555 2431 2420 2479 2346 2245 2295 2565 2511 2579 2835 2723 2053 1869 1696 1588 1665 1489 1420 1360 1469 1922 2156 2196 1816 1836 1966 1700 1668 1859 1971 1913
2468 2184 2499 1853 1886 1911 1943 2054 2346 2874 2999 2866 2602 2537 2532 2436 2313 2391 2539 2563 2755 2895 2960 2370 2150 1955 1821 1354 1328 1306 1293 1395 1709 2072 1769 1395 1583 1971 1750 1674 1780 1933 1908
2249 2215 2726 2001 1937 1940 1863 1974 2127 2525 2747 2870 2810 2749 2658 2560 2517 2470 2471 2554 2973 3196 3256 2822 2762 2607 1591 1094 1152 1216 1242 1288 1574 1534 1428 1540 1643 1907 1802 1557 1599 1867 2075
2461 2491 1850 1933 2027 2023 1965 1965 2088 2138 2240 2519 2704 2937 2879 2758 2722 2603 2381 2659 3107 3300 3318 3181 3048 2660 1525 1033 985 1153 1112 1161 1020 1499 1519 1620 1701 1990 1916 2020 1338 1619 1675
2638 2735 2781 1904 2028 2124 2218 2147 2032 1993 1931 2116 2458 2734 2897 2975 2903 2694 2372 2553 2981 3262 3274 3066 2701 2488 1661 1164 945 1022 1008 1002 1307 1334 1501 1649 1732 2126 2004 1927 2039 1921 1915
2955 2957 2925 2019 1874 2067 2173 2132 1997 1866 1825 1875 2070 2425 2764 2812 2764 2628 2417 2540 2862 2975 2930 2759 2440 2307 1822 1345 1036 802 864 833 1078 1343 1377 1547 1721 1962 1990 2323 2144 1844 1880
2529 3361 3360 3395 2890 1797 2008 2029 1983 1932 1758 1770 1791 1998 2320 2448 2452 2408 2357 2456 2714 2848 2818 2657 2405 2173 1797 1419 1081 721 683 858 1397 1280 1406 1528 1601 1790 2035 2363 2115 1814 1771
465 2383 3409 3507 3580 3536 3391 1916 1710 1831 1833 1733 1703 1738 1846 2032 2166 2198 2155 2252 2479 2529 2504 2463 2360 2145 1683 1379 1087 763 617 636 1212 1248 1410 1213 1449 1577 1892 2442 2150 1893 1681
0 0 1108 3192 3452 3619 3629 3120 1786 1510 1640 1649 1712 1655 1846 2239 2115 2271 2200 2000 2250 2278 2177 2176 2126 1892 1531 1353 1180 916 644 1352 1307 1328 1214 777 760 1328 1660 1801 2216 1936 1799
0 0 0 357 2695 3531 3269 3279 3347 3270 2970 2855 2784 2888 2828 2755 2640 2101 1833 1769 1802 1904 1832 1896 1888 1708 1451 2082 1941 1082 1728 1341 1539 1381 1210 704 813 1118 1237 1635 2143 1909 1738
0 0 0 0 1074 3169 3183 3359 3445 3286 3241 3263 3272 3086 2760 2610 2651 2576 2427 2429 2370 1420 2252 1878 2332 2564 2424 2251 1847 1797 1593 1655 1576 1444 1068 681 702 1239 1381 1718 2051 1960 1785
0 0 0 41 242 2109 3215 3430 3423 3319 3194 3177 3009 2927 2933 2919 2752 2816 2412 2151 2248 2205 2213 2368 2389 2420 2432 2373 2343 2040 2056 1760 1428 1313 1169 610 418 1036 1434 1710 1956 2076 1917
0 0 0 8 406 1294 2862 3365 3558 3460 3144 3008 2908 2855 2501 2691 2856 2557 2315 2366 2172 2259 2045 2117 2385 2136 2275 2232 2323 2187 2300 2118 1764 1407 1300 669 295 667 1297 1583 1786 2010 2032
0 0 0 0 1 0 12 1164 2828 3086 2834 2395 2113 2378 2395 2302 2353 2361 2375 2112 2204 2305 2327 2118 1718 2102 2139 1937 2171 2328 2207 2184 2048 1891 1576 1383 306 170 709 1308 1598 1772 2317
0 0 0 0 0 0 0 0 4 29 358 350 279 23 158 184 177 1612 2231 2136 2126 2230 2065 2089 1904 2115 1890 1777 1778 2081 2282 2323 1967 1791 2037 1669 1089 80 91 389 956 1387 1614
0 0 0 0 0 0 0 0 0 0 0 1 0 3 2 0 0 2 125 426 259 436 480 2130 2061 2076 1799 1574 1510 1458 1794 2222 2240 2018 1927 1960 1667 1448 200 54 150 550 915
0 0 0 0 0 0 0 0 0 0 0 0 0 0 0 0 0 0 0 11 35 12 73 99 916 1763 1821 1568 1605 1413 1430 1594 2228 1767 1867 1884 1848 1820 1495 288 91 67 267
0 0 0 0 0 0 0 0 0 0 0 0 0 0 0 2 2 0 0 0 2 1 82 140 251 486 844 1270 1105 975 902 1233 1630 1185 1275 1464 1711 1860 1836 1636 1076 897 4
0 0 0 0 0 0 0 0 0 0 0 0 0 0 0 3 7 5 3 2 1 0 3 8 8 195 879 1203 778 642 762 1090 406 291 89 14 252 1182 1593 2005 1790 1776 949
0 0 0 0 0 0 0 0 0 0 0 0 0 1 4 5 7 8 12 6 3 6 11 9 10 6 12 747 826 513 172 125 161 3 1 0 84 481 1003 1527 1508 1451 1484
0 0 0 0 0 0 0 0 0 0 0 0 0 0 2 7 11 3 9 9 10 8 7 1 2 15 10 8 546 970 469 328 367 121 0 128 337 707 1040 1197 1408 1506 1717
1 1 1 0 0 0 2 0 1 0 0 0 0 0 1 5 6 6 9 11 14 11 13 12 11 15 14 14 13 285 914 686 310 293 641 680 814 1020 1368 1168 1159 1153 1128
3 2 4 5 3 4 6 4 2 1 1 1 1 1 0 2 6 6 10 7 14 10 10 12 10 7 12 20 18 14 10 482 769 832 352 639 716 719 892 1285 1360 1311 1304
7 8 5 5 4 7 4 6 11 9 6 4 3 2 0 3 6 7 9 8 11 12 10 12 13 10 12 13 12 20 19 15 88 333 537 375 353 573 806 849 1102 1204 1421
CIN
-143 -191 -344 -347 -330 -299 -288 -261 -178 -143 -130 -127 -119 -116 -115 -109 -102 -70 -36 -22 -9 0 0 -7 -13 -21 -26 -14 -4 -15 -35 -28 -1 0 0 0 0 0 0 -2 -17 -2 -2
-99 -177 -359 -359 -341 -293 -267 -255 -187 -127 -103 -111 -120 -114 -106 -100 -99 -76 -37 -26 -12 0 0 -17 -24 -31 -41 -36 -39 -54 -64 -55 -9 -1 -1 0 0 0 0 -9 -27 -4 -2
-118 -172 -222 -325 -314 -292 -262 -224 -159 -108 -94 -99 -109 -120 -104 -101 -105 -74 -36 -31 -16 -1 0 -36 -49 -59 -66 -62 -80 -77 -73 -58 -18 -4 -12 -1 0 0 -1 -12 -15 -3 -1
-95 -150 -151 -288 -278 -273 -270 -234 -181 -117 -98 -93 -98 -101 -106 -100 -94 -74 -49 -33 -11 -2 0 -17 -32 -45 -55 -94 -97 -88 -73 -62 -22 -6 -5 0 0 0 0 -5 -3 0 -1
-92 -108 -120 -271 -263 -257 -262 -235 -204 -156 -128 -110 -98 -84 -79 -80 -80 -77 -63 -40 -7 0 0 -2 -2 -8 -81 -128 -111 -84 -70 -64 -35 -41 0 0 0 -1 0 -2 -3 -1 -3
-72 -87 -290 -270 -248 -239 -245 -237 -215 -203 -178 -141 -111 -75 -63 -60 -56 -62 -70 -37 -4 0 0 0 0 -6 -91 -126 -116 -88 -80 -78 -110 0 0 -3 0 -11 0 0 -4 -7 -6
-55 -71 -96 -264 -230 -223 -212 -220 -235 -234 -217 -179 -133 -92 -64 -46 -39 -48 -68 -41 -8 -1 -1 -1 -4 -13 -64 -101 -116 -105 -101 -104 -24 0 0 0 -1 -6 0 0 -3 -6 -3
-47 -65 -71 -228 -238 -186 -177 -189 -196 -205 -202 -199 -173 -120 -77 -62 -54 -57 -65 -39 -12 -3 -2 -5 -19 -27 -47 -76 -103 -140 -116 -122 -52 0 0 0 -43 -7 0 0 -2 -4 -3
-36 -39 -51 -61 -102 -239 -175 -154 -159 -155 -159 -149 -150 -129 -98 -87 -79 -74 -64 -42 -11 -3 -4 -6 -21 -32 -57 -72 -92 -144 -147 -107 -1 0 0 0 -55 -16 0 0 -1 -6 -5
-160 -32 -14 -26 -33 -27 -26 -173 -170 -137 -132 -138 -124 -115 -99 -75 -67 -69 -71 -50 -23 -12 -8 -5 -9 -23 -60 -77 -90 -139 -152 -141 -27 0 0 -1 -72 -30 -4 0 -2 -4 -10
0 0 -105 -23 -21 -26 -23 -47 -196 -205 -154 -136 -118 -112 -74 -9 -6 -11 -27 -34 -33 -20 -18 -12 -14 -29 -50 -66 -74 -99 -143 -11 -6 0 0 -162 -132 -48 -13 -5 -2 -5 -8
0 0 0 -204 -45 -16 -17 -19 -18 -9 -26 -23 -12 0 -2 0 0 -3 -7 -43 -44 -28 -26 -15 -16 -32 -48 0 0 -79 -4 -2 0 0 0 -106 -119 -68 -46 -13 -3 -6 -11
0 0 0 0 -113 -19 -3 -2 -3 -1 0 0 0 0 0 0 0 0 0 -1 0 -45 0 -8 -5 0 0 0 0 0 -1 0 0 0 -4 -140 -140 -56 -32 -14 -2 -5 -8
0 0 0 -404 -251 -41 0 0 0 0 -1 -1 -1 0 0 0 0 0 0 0 0 0 0 -2 -1 0 0 0 0 0 0 0 0 0 -3 -159 -206 -73 -30 -6 -3 -2 -5
0 0 0 -361 -326 -110 -1 0 0 0 -3 -2 -6 -2 -3 0 0 0 0 0 0 0 0 0 0 0 0 0 0 0 0 0 0 0 0 -136 -225 -124 -40 -13 -2 0 -5
0 0 0 0 0 0 -208 -130 0 0 0 -6 -24 -13 -5 -1 -1 0 0 0 0 0 0 0 0 0 0 -1 0 0 0 0 0 0 0 -11 -199 -258 -100 -37 -13 -2 0
0 0 0 0 0 0 0 0 -20 -18 -239 -270 -268 -17 -264 -256 -250 -6 0 0 0 0 0 0 0 0 0 -1 0 0 0 0 0 0 0 0 -21 -340 -289 -141 -66 -26 -12
0 0 0 0 0 0 0 0 0 0 0 0 0 0 0 0 0 0 -147 -92 -135 -96 -84 0 0 0 0 -1 -1 -1 0 0 0 0 0 0 0 0 -287 -349 -245 -116 -69
0 0 0 0 0 0 0 0 0 0 0 0 0 0 0 0 0 0 0 -256 -235 -294 -154 -155 -28 0 0 0 0 0 0 0 0 -1 0 0 0 0 0 -225 -326 -300 -160
0 0 0 0 0 0 0 0 0 0 0 0 0 0 0 0 0 0 0 0 0 -5 -136 -87 -45 -23 -4 0 0 -1 -1 0 0 -2 0 0 0 0 0 -4 -110 -119 -214
0 0 0 0 0 0 0 0 0 0 0 0 0 0 0 0 0 0 0 0 0 0 0 -1 -1 -19 -4 0 0 0 0 0 0 -50 -81 -169 -10 0 -1 0 -55 -17 -61
0 0 0 0 0 0 0 0 0 0 0 0 0 0 0 0 0 0 0 0 0 0 0 0 0 0 -29 -1 0 -1 -9 -33 -26 -65 -89 0 -127 -2 0 0 -37 -35 -38
0 0 0 0 0 0 0 0 0 0 0 0 0 0 0 0 0 0 0 0 0 0 0 0 0 0 0 0 -1 0 0 0 -1 -95 0 -139 -65 -2 0 -2 -3 -29 -7
0 0 0 0 0 0 0 0 0 0 0 0 0 0 0 0 0 0 0 0 0 0 0 0 0 0 0 0 0 -1 0 0 0 0 -1 -8 -7 0 0 -1 -1 -12 -14
0 0 0 0 0 0 0 0 0 0 0 0 0 0 0 0 0 0 0 0 0 0 0 0 0 0 0 0 0 0 0 0 0 0 0 0 -4 -1 0 -1 -1 0 -2
0 0 0 0 0 0 0 0 0 0 0 0 0 0 0 0 0 0 0 0 0 0 0 0 0 0 0 0 0 -1 0 0 0 0 0 0 0 -1 0 0 0 -1 0
Wind_Speed
7 13 11 13 12 11 10 10 9 8 9 11 13 14 15 16 17 16 15 15 15 14 16 14 11 10 10 10 9 9 7 8 8 9 9 10 11 12 13 11 11 14 10
7 14 11 13 13 11 11 11 11 9 9 11 12 13 14 15 16 16 15 15 15 15 16 14 12 11 11 11 10 8 8 8 9 8 8 10 10 11 11 8 8 16 10
7 11 13 10 12 12 12 11 11 11 10 10 11 13 13 14 15 15 15 15 15 16 16 16 14 12 11 10 9 8 7 8 8 8 10 10 12 11 10 5 13 13 11
8 11 12 9 10 10 11 11 11 11 11 11 10 11 13 14 14 14 14 13 14 16 16 16 14 12 9 9 9 8 7 8 8 8 11 4 12 11 10 8 10 12 11
5 7 10 10 9 10 11 11 10 11 11 11 11 10 11 12 13 13 13 13 13 15 15 15 14 10 9 9 9 7 7 8 8 11 4 4 7 12 12 11 11 9 11
3 3 12 9 9 10 11 11 10 10 10 11 10 10 10 11 11 11 11 13 13 13 15 13 12 9 8 7 8 8 8 8 9 9 5 6 5 15 12 12 8 9 7
3 0 7 7 7 9 10 11 11 11 10 10 10 10 10 10 10 10 10 11 12 12 13 12 9 9 7 7 8 9 8 8 11 6 6 8 5 11 12 13 10 10 9
4 2 1 7 5 6 6 7 6 5 7 9 11 11 11 11 11 11 11 11 11 11 11 10 10 10 8 8 9 8 8 9 9 7 6 7 12 10 13 13 11 12 11
5 4 3 3 7 7 3 3 3 3 5 6 7 8 10 11 11 12 12 11 10 9 9 9 9 9 10 10 9 8 8 9 10 6 7 6 13 11 11 13 13 13 13
7 5 6 5 5 6 7 8 4 5 6 6 7 6 7 6 7 9 10 11 10 10 9 9 9 9 10 9 8 8 8 7 12 7 7 4 11 12 13 11 13 14 14
7 8 6 6 6 6 7 6 10 9 7 7 9 9 6 9 12 14 12 9 12 10 10 9 9 9 9 8 7 8 8 9 10 7 6 12 9 11 13 10 11 13 14
12 10 7 8 8 8 7 7 8 8 9 11 11 11 10 10 10 8 9 9 7 9 9 9 11 10 9 11 10 10 9 11 8 8 6 11 9 12 12 10 10 12 14
14 12 12 10 9 9 8 7 5 5 6 6 9 8 7 6 6 6 7 8 10 11 10 12 12 11 14 12 10 9 12 11 7 7 7 12 11 12 12 11 10 11 12
16 16 17 15 10 9 7 7 7 5 5 5 6 8 8 7 8 8 5 7 9 9 12 10 8 13 15 16 14 12 12 10 8 7 6 12 11 12 13 13 12 12 13
14 15 16 16 15 14 9 7 6 5 6 5 5 7 5 5 7 7 6 5 5 8 9 9 10 11 13 14 14 14 14 13 13 7 6 14 12 13 15 15 16 16 16
14 14 16 15 16 14 11 11 3 4 3 2 0 3 6 5 5 6 8 7 7 6 8 9 9 9 9 8 13 14 15 14 13 13 9 9 14 15 15 16 16 15 16
13 15 17 16 16 14 11 10 7 7 7 6 5 8 6 5 5 5 6 8 7 7 10 8 10 10 8 7 12 12 13 16 14 14 12 10 11 14 14 16 15 15 14
15 16 15 14 15 15 14 9 6 7 5 6 6 6 9 8 7 6 5 4 4 4 5 7 8 10 9 8 8 9 10 13 16 16 13 12 11 9 14 16 16 17 15
14 15 15 16 16 14 12 8 7 8 7 6 6 7 10 9 9 8 5 5 6 6 6 5 6 9 10 9 10 10 11 12 14 10 15 14 14 12 10 16 18 16 17
13 13 14 13 17 14 9 7 6 6 6 7 8 8 11 9 11 9 7 7 7 8 8 7 8 6 7 7 9 12 12 10 9 7 7 8 12 15 15 13 11 12 19
12 13 14 14 15 11 11 8 5 7 6 6 7 10 10 10 11 10 8 8 8 8 10 10 9 11 10 10 7 9 9 11 9 6 9 8 14 16 16 17 10 10 12
11 12 12 14 15 12 9 8 6 5 4 5 7 8 11 11 11 11 10 9 9 8 11 12 11 9 10 9 5 4 4 3 8 10 9 13 22 15 14 16 14 16 14
14 13 12 12 11 11 12 7 6 3 3 5 6 7 10 11 12 11 12 10 10 8 7 10 9 11 11 10 11 9 4 6 8 7 13 14 19 15 16 14 13 15 15
13 12 12 12 12 11 12 9 10 8 6 6 7 7 8 11 10 11 12 12 10 9 9 9 9 9 8 10 11 7 17 15 10 10 10 14 17 18 18 15 15 16 17
11 11 13 13 13 12 12 10 8 7 7 6 7 8 10 10 11 11 13 12 11 8 9 10 11 10 8 8 9 11 12 13 13 12 12 9 11 13 15 16 15 14 18
9 9 9 10 11 13 12 13 12 11 8 7 8 7 8 7 9 10 13 11 11 10 10 10 11 10 9 9 8 9 11 9 11 12 15 16 15 11 13 13 14 15 15
Wind_Direction
144 140 158 146 139 134 119 116 125 142 162 164 164 161 157 152 151 153 154 155 156 156 152 154 154 148 134 137 130 123 117 111 107 110 114 119 128 131 130 144 178 117 133
152 154 160 150 150 144 132 127 133 143 161 166 167 164 162 158 158 159 160 161 163 163 156 157 157 151 141 133 127 127 127 119 117 122 136 134 137 139 145 172 258 115 130
146 140 164 151 153 149 142 137 138 143 152 162 171 167 167 167 164 166 164 166 167 166 162 162 160 157 149 136 129 129 121 119 133 149 191 171 147 147 149 115 107 134 139
136 150 156 153 153 154 146 146 144 144 148 157 171 174 171 174 174 172 169 172 175 170 167 170 169 164 154 140 132 131 131 135 150 172 207 173 128 146 151 144 133 146 152
115 148 126 156 157 158 156 157 154 148 151 156 165 174 180 180 182 179 176 178 182 180 178 179 181 173 166 151 141 144 149 149 164 205 137 175 141 146 159 161 159 151 175
89 153 124 166 170 169 167 167 166 165 165 166 167 171 181 185 188 189 187 184 187 189 185 192 193 181 178 161 155 160 168 167 188 212 166 119 223 144 170 174 175 164 170
30 136 162 166 183 185 179 178 179 178 174 174 175 176 180 187 193 193 192 193 193 194 191 197 199 188 188 176 175 175 185 187 225 172 177 158 168 157 180 186 170 165 165
342 333 286 164 203 219 210 198 194 191 193 188 185 184 184 186 188 193 194 196 195 197 196 199 203 188 196 195 192 187 194 210 218 195 199 188 121 169 190 191 180 179 181
356 329 277 244 193 201 245 252 215 197 205 219 214 206 201 194 191 194 196 197 201 200 201 202 195 189 199 205 199 195 198 212 249 225 210 203 143 191 200 196 188 190 190
351 339 316 290 252 237 218 183 197 202 205 209 229 234 233 229 219 208 199 202 202 202 203 202 203 205 207 209 200 193 198 218 241 224 223 202 147 196 209 199 197 194 198
4 350 308 278 258 236 231 195 191 205 212 209 213 219 225 236 222 221 217 206 201 205 203 202 202 209 212 218 213 192 192 229 223 237 228 119 162 205 211 221 206 198 202
346 336 324 294 257 234 236 225 221 216 213 212 216 217 215 225 234 254 229 199 201 209 208 205 204 202 204 223 206 199 223 237 230 242 237 131 192 213 219 228 212 200 202
336 331 337 321 273 244 232 222 218 216 219 221 243 234 231 220 222 228 245 211 225 207 223 209 211 220 222 231 227 209 215 225 232 229 227 149 197 218 224 225 212 204 209
338 342 346 338 307 269 257 220 231 222 205 231 215 219 232 227 224 216 210 243 246 229 221 230 219 223 223 226 237 231 231 232 224 228 213 157 194 216 227 228 218 213 214
358 359 354 356 351 341 273 256 246 218 219 220 223 222 228 242 239 230 217 211 235 237 240 242 236 230 231 231 232 235 233 232 244 239 236 160 188 208 222 228 238 229 230
7 7 3 4 2 2 1 351 304 275 219 211 179 257 228 237 234 228 230 218 222 230 243 233 232 250 239 230 239 239 239 239 233 238 236 196 187 203 211 225 230 240 237
13 10 11 8 7 6 7 1 11 18 23 43 41 19 7 12 356 301 250 229 231 225 228 232 248 249 241 225 228 226 236 245 244 242 239 241 193 196 205 213 221 228 240
16 15 15 12 11 9 8 6 14 20 39 43 27 29 11 2 355 330 309 293 320 300 309 252 237 233 222 224 226 228 220 230 239 238 238 241 247 231 195 206 214 217 221
25 19 16 14 13 9 6 355 18 29 27 33 35 31 12 4 353 329 292 281 295 271 265 270 291 252 241 224 225 219 221 219 223 219 233 237 244 248 232 192 198 215 217
25 29 22 17 14 9 9 352 7 32 38 31 32 23 10 4 352 331 313 316 305 290 269 250 254 268 270 253 239 229 218 219 229 229 241 247 252 249 246 236 197 209 216
30 30 27 21 17 14 13 9 0 6 10 26 22 16 11 4 1 339 331 322 317 303 305 301 287 276 263 260 260 251 228 215 189 164 179 251 272 253 240 238 216 233 213
30 28 27 24 20 20 11 358 352 348 1 8 12 10 10 2 1 354 350 341 332 324 315 309 301 288 273 268 244 253 272 239 246 239 234 220 243 242 249 250 220 227 229
27 25 28 30 25 21 4 4 348 351 3 12 11 9 356 1 5 358 352 345 334 331 319 311 307 307 289 268 274 246 216 248 244 215 227 221 231 234 239 240 240 226 226
15 11 20 18 18 23 16 13 10 3 359 6 360 9 358 1 2 2 351 342 332 331 323 321 318 309 294 285 274 263 270 280 257 243 213 216 227 229 231 234 232 232 227
11 9 8 3 13 17 12 17 16 358 358 355 359 360 15 358 358 1 345 338 327 325 323 319 314 311 307 291 277 287 289 270 268 263 263 223 232 231 229 227 235 240 232
9 15 14 6 16 10 16 12 9 2 10 353 8 348 24 5 357 351 344 331 327 326 324 317 305 299 295 288 289 280 278 282 275 261 256 254 256 241 237 239 231 231 242